Farmingdale, NY

4:35 AM EDT on October 19, 2017 (GMT -0400)
Republic

Weather History for KFRG - October, 2011

Change the Weather History Date:

Tuesday, October 18, 2011

  Actual Average Record
Temperature  
Mean Temperature 60 °F -  
Max Temperature 66 °F 60 °F 75 °F (2007)
Min Temperature 53 °F 44 °F 36 °F (2015)
Degree Days  
Heating Degree Days 6    
Growing Degree Days 10 (Base 50)    
Moisture  
Dew Point 44 °F    
Average Humidity 63    
Maximum Humidity 86    
Minimum Humidity 25    
Precipitation  
Precipitation 0.00 in - - ()
Sea Level Pressure  
Sea Level Pressure 29.86 in    
Wind  
Wind Speed 5 mph (SW)    
Max Wind Speed 8 mph    
Max Gust Speed -    
Visibility 10 miles    
Events      
Averages and records for this station are not official NWS values.
T = Trace of Precipitation, MM = Missing Value Source: NWS Daily Summary

Daily Weather History Graph

Daily Weather History Graph

Search for Another Location

Airport or City:

Trip Planner

Search our weather history database for the weather conditions in past years. The results will help you decide how hot, cold, wet, or windy it might be!

Date:

Astronomy

Oct. 18, 2011 Rise Set
Actual Time 7:07 AM EDT 6:09 PM EDT
Civil Twilight 6:40 AM EDT 6:36 PM EDT
Nautical Twilight 6:08 AM EDT 7:08 PM EDT
Astronomical Twilight 5:36 AM EDT 7:40 PM EDT
Moon 10:46 PM EDT (10/18) 12:58 PM EDT (10/18)
Length of Visible Light 11h 56m
Length of Day
11h 01m
Waning Gibbous, 65% of the Moon is Illuminated
Oct 18
Waning Gibbous
Oct 19
Last Quarter
Oct 26
New
Nov 2
First Quarter
Nov 10
Full

Hourly Weather History & Observations

Time (EDT) Temp. Dew Point Humidity Pressure Visibility Wind Dir Wind Speed Gust Speed Precip Events Conditions
12:53 AM 57.9 °F 50.0 °F 75% 29.80 in 10.0 mi West 8.1 mph - N/A   Clear
1:53 AM 55.0 °F 48.9 °F 80% 29.81 in 10.0 mi WSW 5.8 mph - N/A   Clear
2:53 AM 54.0 °F 48.9 °F 83% 29.80 in 10.0 mi West 3.5 mph - N/A   Mostly Cloudy
3:53 AM 54.0 °F 50.0 °F 86% 29.81 in 10.0 mi WSW 4.6 mph - N/A   Clear
4:53 AM 54.0 °F 50.0 °F 86% 29.82 in 10.0 mi SW 3.5 mph - N/A   Clear
5:53 AM 53.1 °F 48.9 °F 86% 29.84 in 10.0 mi WSW 3.5 mph - N/A   Clear
6:53 AM 53.1 °F 48.0 °F 83% 29.85 in 10.0 mi WSW 3.5 mph - N/A   Clear
7:53 AM 55.0 °F 50.0 °F 83% 29.87 in 10.0 mi SW 3.5 mph - N/A   Scattered Clouds
8:53 AM 55.9 °F 51.1 °F 84% 29.89 in 10.0 mi WSW 3.5 mph - 0.00 in   Overcast
9:53 AM 59.0 °F 51.1 °F 75% 29.88 in 10.0 mi SSW 3.5 mph - 0.00 in   Mostly Cloudy
10:53 AM 63.0 °F 37.0 °F 38% 29.88 in 10.0 mi WSW 4.6 mph - N/A   Partly Cloudy
11:53 AM 66.0 °F 37.0 °F 34% 29.89 in 10.0 mi SSW 8.1 mph - N/A   Clear
12:53 PM 66.2 °F 37.4 °F 35% 29.87 in 10.0 mi SSW 6.9 mph - N/A   Clear
1:53 PM 66.9 °F 34.0 °F 30% 29.86 in 10.0 mi SSW 5.8 mph - N/A   Clear
2:53 PM 66.9 °F 33.1 °F 28% 29.86 in 10.0 mi SW 8.1 mph - N/A   Mostly Cloudy
3:53 PM 66.0 °F 28.9 °F 25% 29.86 in 10.0 mi WSW 6.9 mph - N/A   Scattered Clouds
4:53 PM 64.4 °F 32.0 °F 30% 29.86 in 10.0 mi South 5.8 mph - N/A   Clear
5:53 PM 62.1 °F 39.9 °F 44% 29.87 in 10.0 mi SSE 3.5 mph - N/A   Scattered Clouds
6:53 PM 60.1 °F 43.0 °F 53% 29.88 in 10.0 mi Calm Calm - N/A   Partly Cloudy
7:53 PM 59.0 °F 46.9 °F 64% 29.89 in 10.0 mi Calm Calm - N/A   Partly Cloudy
8:53 PM 55.9 °F 48.0 °F 75% 29.90 in 10.0 mi Calm Calm - N/A   Clear
9:53 PM 54.0 °F 48.0 °F 80% 29.90 in 10.0 mi East 4.6 mph - N/A   Clear
10:53 PM 55.9 °F 51.1 °F 84% 29.90 in 10.0 mi Calm Calm - N/A   Partly Cloudy
11:53 PM 57.2 °F 51.8 °F 82% 29.90 in 10.0 mi ENE 4.6 mph - N/A   Mostly Cloudy